[[{"header":{"parameterUnit":"m.s-1","parameterCategory":1,"la1":30.2991,"la2":30.254,"lo1":-89.0895,"lo2":-89.0444,"dy":0.0017,"dx":0.0017,"nx":28,"ny":28,"refTime":"2024-07-16T21:00:00:Z","depth":0,"parameterNumber":2,"parameterNumberName":"U-component_of_WINDS"},"data":[0,0,0,0,0,0,0,0,0,0,0,0,0,0,0,0,0,0,0,0,0,0,0,0,0,0,0,0,0,0,0,0,0,0,0,0,0,0,0,0,0,0,0,0,0,0,0,0,0,0,0,0,0,0,0,0,0,0,2.7441,2.7442,0,2.7527,2.7528,2.7529,2.7505,2.7503,2.7501,2.7499,2.7587,2.7591,2.7595,0,0,0,0,0,0,0,0,0,0,0,0,0,2.7253,2.7256,2.7441,2.7442,2.7443,2.7527,2.7528,2.7529,2.7505,2.7503,2.7501,2.7499,2.7585,2.759,2.7595,0,0,0,0,0,0,0,0,0,0,0,0,0,2.7336,2.7257,2.7441,2.7441,2.7442,2.7526,2.7528,2.7529,2.7505,2.7503,2.75,2.7498,2.7584,2.759,2.7596,2.7684,0,0,2.7614,2.7616,0,0,0,0,0,0,0,0,2.7331,2.7343,2.744,2.7441,2.7442,2.7502,2.7493,2.7581,2.7506,2.7481,2.7499,2.7496,2.7561,2.7568,2.759,2.7689,2.7692,2.7614,2.7618,2.762,2.7622,0,0,0,0,0,0,0,2.7326,2.7339,2.7475,2.7441,2.7443,2.7436,2.7445,2.751,2.7535,2.7483,2.7482,2.7492,2.7561,2.7585,2.7592,2.7694,2.7614,2.7619,2.7623,2.7625,2.7865,2.7867,0,0,0,0,0,0,2.7319,2.7334,2.7472,2.7477,2.7379,2.7441,2.7451,2.7486,2.7534,2.7539,2.7494,2.7491,2.7576,2.7585,2.7595,2.7699,2.762,2.7626,2.7629,2.7862,2.7865,2.7868,0,0,0,0,0,0,2.7315,2.7332,2.7468,2.7405,2.7422,2.7447,2.7486,2.7489,2.7512,2.7542,2.7546,2.7514,2.7574,2.7587,2.7661,2.7702,2.7628,2.7634,2.7859,2.7863,2.7867,2.791,0,0,0,0,0,0,2.731,2.7331,2.7365,2.7406,2.7426,2.7535,2.7489,2.7492,2.7523,2.7519,2.7562,2.7567,2.7573,2.7653,2.7667,2.7709,2.7638,2.7855,2.7861,2.7866,2.7905,2.7915,2.7924,0,0,0,0,0,2.7303,2.7375,2.7367,2.7384,2.747,2.7537,2.7548,2.7554,2.7526,2.7561,2.7579,2.7565,2.7696,2.7661,2.7677,2.7721,2.7853,2.7859,2.7865,2.7901,2.7913,2.7924,0,0,0,0,0,0,2.7339,2.738,2.7373,2.746,2.7495,2.7533,2.7577,2.7568,2.7611,2.7606,2.7611,2.7621,2.7697,2.7717,2.7677,2.7807,2.777,2.778,2.7791,2.7803,2.7813,2.7805,2.7643,0,0,0,0,0,2.7356,2.7408,2.7442,2.7515,2.7533,2.7552,2.7581,2.7583,2.7619,2.7634,2.7658,2.7694,2.7742,2.7774,2.7821,2.7908,2.7915,2.7946,2.7956,2.7963,2.7971,2.8015,2.8028,2.7889,2.7889,2.7889,0,0,2.7394,2.7423,2.7455,2.7523,2.755,2.7601,2.7565,2.7622,2.7659,2.7643,2.7714,2.7733,2.7773,2.7853,2.789,2.7872,2.8011,2.7971,2.7977,2.7981,2.8023,2.8036,2.8047,2.7893,2.7893,2.7892,0,0,2.7488,2.7517,2.7579,2.7607,2.7648,2.766,2.7675,2.7714,2.7725,2.7797,2.7784,2.7829,2.7914,2.7941,2.7967,2.8068,2.8055,2.8083,2.8132,2.8174,2.8185,2.8195,2.8228,2.824,2.8091,2.8091,2.8092,0,2.7529,2.7607,2.7612,2.7669,2.7698,2.7685,2.7747,2.7773,2.7828,2.7848,2.7827,2.793,2.7957,2.8041,2.8066,2.8088,2.8103,2.8077,2.8183,2.8193,2.8202,2.8233,2.8246,2.8094,2.8094,2.8094,2.8093,0,2.7653,2.7707,2.7753,2.7805,2.7839,2.7898,2.7911,2.7945,2.7943,2.7956,2.8027,2.8058,2.8109,2.8129,2.8129,2.8213,2.82,2.8182,2.8144,2.8218,2.8247,2.826,2.8098,2.8097,2.8096,2.8096,0,0,2.7772,2.7825,2.7841,2.7863,2.7907,2.7948,2.8006,2.8055,2.8082,2.812,2.8166,2.8237,2.8219,2.8247,2.825,2.8288,2.8361,2.8264,2.8265,2.8278,2.8452,2.8464,2.8478,2.8354,2.8356,2.8358,2.8448,0,2.7867,2.7969,2.7974,2.8066,2.8113,2.8101,2.815,2.8182,2.8195,2.8237,2.8252,2.83,2.8274,2.8291,2.8328,2.8345,2.8396,2.8339,2.8395,2.8397,2.8383,2.8494,2.8508,2.8591,2.846,2.8462,2.8463,0,2.7992,2.8032,2.8128,2.8162,2.8182,2.8227,2.8271,2.8312,2.8346,2.8353,2.8383,2.8379,2.8436,2.8398,2.8475,2.8435,2.8459,2.847,2.8473,2.8477,2.8433,2.8498,2.8618,2.8629,2.8482,2.8481,2.8479,0,2.8065,2.8143,2.821,2.8229,2.8271,2.8302,2.8321,2.8353,2.8381,2.842,2.8437,2.8482,2.8506,2.854,2.8547,2.8519,2.8623,2.8586,2.8628,2.8628,2.8649,2.8647,2.8772,2.8669,2.8669,2.8669,2.8668,0,2.8169,2.8228,2.8242,2.8283,2.8347,2.8352,2.8415,2.8432,2.846,2.8502,2.8494,2.8534,2.8542,2.8583,2.859,2.865,2.8662,2.8668,2.8668,2.8667,2.8666,2.8681,2.8674,2.8672,2.8671,2.8671,2.867,0,2.8261,2.8274,2.8345,2.8378,2.8387,2.8433,2.846,2.8498,2.851,2.8564,2.8577,2.8595,2.8642,2.8653,2.8711,2.8715,2.8785,2.8782,2.8774,2.8772,2.8813,2.8808,2.8949,2.8966,2.8855,2.8856,2.8857,0,2.8325,2.837,2.8407,2.8434,2.8454,2.8499,2.8527,2.8534,2.8563,2.8603,2.8636,2.8682,2.872,2.8796,2.8814,2.8856,2.8852,2.8898,2.8858,2.8854,2.8849,2.8845,2.8848,2.8905,2.8907,2.8908,2.8908,0,2.8437,2.844,2.8481,2.8524,2.8557,2.8591,2.8624,2.8647,2.8657,2.869,2.8738,2.8767,2.8823,2.8869,2.8911,2.8929,2.892,2.8921,2.8932,2.893,2.8922,2.8924,2.8791,2.8917,2.8916,2.8916,2.8915,2.8915,2.8515,2.8552,2.8583,2.8628,2.8653,2.8682,2.8719,2.8734,2.8775,2.8821,2.8822,2.8873,2.8904,2.8959,2.898,2.9019,2.9005,2.9022,2.9026,2.903,2.9032,2.8918,2.9027,2.9027,2.9027,2.9027,2.9027,0,2.8624,2.8642,2.8684,2.8728,2.8763,2.8751,2.8785,2.8815,2.886,2.8889,2.8925,2.8979,2.9022,2.9043,2.9085,2.9112,2.9109,2.9123,2.9119,2.9123,2.9044,2.9028,2.9125,2.9125,2.9125,2.9125,2.9125,2.9125,2.8684,2.8745,2.8752,2.8824,2.8843,2.8892,2.8912,2.8939,2.8962,2.9021,2.9057,2.907,2.9095,2.9138,2.9177,2.9181,2.9196,2.9212,2.9214,2.9139,2.9129,2.912,2.9105,2.9216,2.9216,2.9289,2.929,2.9291]},{"header":{"parameterUnit":"m.s-1","parameterCategory":1,"la1":30.2991,"la2":30.254,"lo1":-89.0895,"lo2":-89.0444,"dy":0.0017,"dx":0.0017,"nx":28,"ny":28,"refTime":"2024-07-16T21:00:00:Z","depth":0,"parameterNumber":3,"parameterNumberName":"V-component_of_WINDS"},"data":[0,0,0,0,0,0,0,0,0,0,0,0,0,0,0,0,0,0,0,0,0,0,0,0,0,0,0,0,0,0,0,0,0,0,0,0,0,0,0,0,0,0,0,0,0,0,0,0,0,0,0,0,0,0,0,0,0,0,1.3168,1.3168,0,1.3102,1.3101,1.31,1.3047,1.3047,1.3046,1.3046,1.2976,1.2975,1.2974,0,0,0,0,0,0,0,0,0,0,0,0,0,1.3248,1.3246,1.3168,1.3168,1.3167,1.3102,1.3101,1.31,1.3047,1.3047,1.3046,1.3046,1.2977,1.2975,1.2973,0,0,0,0,0,0,0,0,0,0,0,0,0,1.32,1.3246,1.3168,1.3133,1.3129,1.3102,1.3101,1.31,1.3048,1.3047,1.3046,1.3045,1.2977,1.2975,1.2973,1.2976,0,0,1.2967,1.2966,0,0,0,0,0,0,0,0,1.3203,1.3197,1.3139,1.3135,1.3131,1.3082,1.3103,1.3058,1.3048,1.3078,1.3046,1.3045,1.3012,1.3007,1.2996,1.2973,1.297,1.2967,1.2965,1.2965,1.2964,0,0,0,0,0,0,0,1.3206,1.32,1.3142,1.3138,1.3133,1.3119,1.3111,1.3094,1.305,1.3076,1.3072,1.3065,1.301,1.2998,1.2994,1.2969,1.2967,1.2965,1.2964,1.2963,1.2941,1.2942,0,0,0,0,0,0,1.3216,1.3203,1.3144,1.314,1.3166,1.3118,1.311,1.3098,1.305,1.3042,1.3065,1.3062,1.3002,1.2997,1.2991,1.299,1.2965,1.2963,1.2961,1.2941,1.2942,1.2942,0,0,0,0,0,0,1.3217,1.3211,1.3147,1.317,1.3161,1.3118,1.3105,1.3097,1.3086,1.3042,1.3034,1.3062,1.3001,1.2994,1.298,1.2987,1.2962,1.296,1.294,1.2941,1.2942,1.2988,0,0,0,0,0,0,1.322,1.3212,1.3213,1.3171,1.316,1.3137,1.3106,1.3097,1.3083,1.3078,1.3037,1.303,1.3,1.2983,1.2978,1.2984,1.2958,1.2939,1.294,1.2942,1.2986,1.2991,1.2995,0,0,0,0,0,1.3223,1.3229,1.3214,1.3207,1.3161,1.3138,1.3131,1.3098,1.3084,1.3084,1.3056,1.3031,1.2987,1.2982,1.2976,1.2981,1.2939,1.294,1.2942,1.2984,1.299,1.2995,0,0,0,0,0,0,1.3274,1.3223,1.3205,1.3198,1.3173,1.3129,1.3129,1.3105,1.3083,1.308,1.3039,1.303,1.3019,1.2998,1.2994,1.298,1.2959,1.296,1.2994,1.2999,1.3003,1.3008,1.2957,0,0,0,0,0,1.3284,1.327,1.3226,1.3224,1.3212,1.3173,1.3161,1.3137,1.3109,1.3098,1.3069,1.3042,1.3021,1.3009,1.2988,1.2982,1.2972,1.2983,1.2987,1.2991,1.2992,1.2985,1.2989,1.2947,1.2947,1.2947,0,0,1.3305,1.3276,1.327,1.3233,1.3211,1.3196,1.3164,1.315,1.3138,1.3096,1.308,1.3057,1.3024,1.3013,1.3007,1.2996,1.3001,1.2993,1.2996,1.2995,1.2987,1.2991,1.2994,1.2948,1.2948,1.2948,0,0,1.3336,1.3313,1.3308,1.3286,1.3252,1.3225,1.3224,1.3183,1.3166,1.315,1.3117,1.3102,1.3069,1.3046,1.303,1.305,1.3026,1.3044,1.3067,1.3061,1.3065,1.3067,1.3073,1.3076,1.3045,1.3045,1.3045,0,1.3367,1.3344,1.3308,1.3296,1.328,1.324,1.3234,1.3214,1.3175,1.3164,1.3152,1.3108,1.3083,1.3066,1.307,1.3059,1.3055,1.3049,1.3067,1.3069,1.3071,1.3076,1.3079,1.3047,1.3047,1.3047,1.3047,0,1.3382,1.3367,1.3367,1.333,1.3314,1.3305,1.3266,1.3254,1.3231,1.3205,1.3188,1.3156,1.3127,1.3121,1.3099,1.31,1.3094,1.3075,1.3054,1.3078,1.3082,1.3084,1.3051,1.305,1.3049,1.3049,0,0,1.3445,1.3387,1.3387,1.3369,1.3328,1.3314,1.3302,1.3274,1.3264,1.3238,1.3226,1.3198,1.3179,1.3161,1.3136,1.313,1.3146,1.3112,1.311,1.3118,1.3143,1.3157,1.316,1.313,1.313,1.313,1.3145,0,1.3468,1.3445,1.3411,1.3399,1.3383,1.3344,1.3333,1.3306,1.3282,1.3263,1.3236,1.3216,1.3194,1.3182,1.3176,1.3146,1.315,1.3144,1.3117,1.3116,1.3126,1.3162,1.3177,1.3193,1.3147,1.3147,1.3147,0,1.3493,1.3468,1.3455,1.3413,1.3405,1.3396,1.3366,1.335,1.3318,1.33,1.3279,1.3251,1.3234,1.3215,1.3191,1.3188,1.3174,1.3158,1.3158,1.3153,1.3133,1.3158,1.3197,1.32,1.315,1.3149,1.3149,0,1.3538,1.3501,1.3488,1.3474,1.3425,1.3419,1.3399,1.3365,1.335,1.3324,1.3313,1.3285,1.327,1.3248,1.3213,1.3203,1.3192,1.3171,1.3176,1.3177,1.3175,1.3175,1.3212,1.3168,1.3168,1.3168,1.3168,0,1.3567,1.356,1.3507,1.3499,1.3489,1.3449,1.344,1.3416,1.3386,1.3371,1.3336,1.3323,1.3277,1.3258,1.323,1.3213,1.3207,1.3191,1.3183,1.3194,1.3196,1.3184,1.3182,1.3168,1.3168,1.3168,1.3168,0,1.3616,1.358,1.3563,1.3517,1.3506,1.35,1.3461,1.3451,1.3423,1.3405,1.3398,1.3355,1.333,1.3293,1.3257,1.3238,1.3225,1.3214,1.3237,1.3232,1.3238,1.3238,1.3268,1.327,1.3226,1.3227,1.3227,0,1.3636,1.363,1.3584,1.3571,1.3552,1.3532,1.3516,1.3476,1.3461,1.3422,1.3416,1.3389,1.3365,1.3327,1.3292,1.3263,1.325,1.3263,1.3246,1.3255,1.3249,1.3249,1.3247,1.3267,1.3267,1.3268,1.3268,0,1.3676,1.3659,1.3637,1.3609,1.359,1.3566,1.354,1.3532,1.3486,1.347,1.3444,1.3426,1.3389,1.3361,1.3328,1.3305,1.3279,1.3274,1.3273,1.3283,1.3296,1.3288,1.3246,1.3273,1.3273,1.3272,1.3272,1.3272,1.3711,1.3702,1.3668,1.3644,1.362,1.3596,1.3584,1.3554,1.3533,1.35,1.3477,1.3452,1.3418,1.3371,1.3349,1.3328,1.3317,1.3317,1.3316,1.3316,1.3319,1.33,1.3322,1.3322,1.3322,1.3321,1.3321,0,1.3748,1.3723,1.3702,1.3666,1.3647,1.3624,1.3594,1.3579,1.3558,1.3528,1.3505,1.3475,1.3447,1.3409,1.3379,1.3369,1.3356,1.3363,1.3363,1.3357,1.3332,1.3335,1.3374,1.3374,1.3374,1.3374,1.3374,1.3374,1.3765,1.3748,1.3727,1.3697,1.3673,1.3649,1.3633,1.361,1.3586,1.3553,1.3531,1.3506,1.3473,1.3439,1.3413,1.3402,1.3392,1.3402,1.3387,1.3364,1.3359,1.3355,1.3357,1.34,1.34,1.3414,1.3414,1.3414]}]]